{"data":{"norad_id":51717,"intl_designator":"2022-016D","name":"STARLINK-3445","alt_names":[],"object_type":"PAYLOAD","status":"ACTIVE","operator":null,"country":"US","launch_date":"2022-02-21","launch_site_code":"AFETR","launch_vehicle":null,"mission":null,"orbit_class":"UNKNOWN","rcs_meters":null,"size_class":null,"mass_kg":null,"dimensions":null,"purposes":["comms"],"wikipedia_slug":null,"has_3d_model":false,"image_url":null,"decayed_at":null,"tle_current":{"epoch":"2026-05-24T23:45:52.185312Z","epoch_age_seconds":79921,"freshness":"FRESH","line1":"1 51717U 22016D   26144.99018733  .00000487  00000+0  48671-4 0  9997","line2":"2 51717  53.2136 346.6806 0001458  78.6677 281.4479 15.08835752234946","mean_motion":15.08835752,"eccentricity":0.0001458,"inclination_deg":53.2136,"raan_deg":346.6806,"arg_perigee_deg":78.6677,"mean_anomaly_deg":281.4479,"bstar":4.8671e-5,"rev_number":23494,"period_min":95.437823374164,"perigee_km":538.74774457728,"apogee_km":540.76500228498,"semimajor_km":6917.8933734311,"source":"CELESTRAK","updated_at":"2026-05-25T13:38:16.920292Z"}}}